Hourly Data Report for October 28, 2016

All times are specified in Local Standard Time (LST). Add 1 hour to adjust for Daylight Saving Time where and when it is observed.

WINNIPEG A CS
MANITOBA

49°55'00.000" N
97°14'58.000" W
238.70 m
502S001
71849
XWG

Download Data

Hourly Data (October 2016)
Hourly Data Report for October 28, 2016
Temp Definition
°C
Dew Point Temp Definition
°C
Rel Hum Definition
%
Wind Dir Definition
10's deg

Wind Spd Definition
km/h
Visibility Definition
km
Stn Press Definition
kPa
Hmdx Definition


Wind Chill Definition


Weather Definition


TIME
00:00 9.2 7.8 91 14 20   97.96     LegendNANA
01:00 10.2 9.0 92 17 27   97.88     LegendNANA
02:00 10.3 8.9 91 18 26   97.80     LegendNANA
03:00 10.3 8.7 90 17 23   97.81     LegendNANA
04:00 10.1 8.6 91 17 19   97.74     LegendNANA
05:00 10.1 8.6 91 16 17   97.60     LegendNANA
06:00 10.2 8.7 90 15 20   97.50     LegendNANA
07:00 10.0 8.6 91 16 13   97.55     LegendNANA
08:00 10.1 8.4 89 26 11   97.60     LegendNANA
09:00 9.8 8.5 92 21 7   97.56     LegendNANA
10:00 9.7 8.7 94 27 5   97.58     LegendNANA
11:00 9.8 9.0 95 3 3   97.53     LegendNANA
12:00 10.0 9.0 94 33 4   97.59     LegendNANA
13:00 10.4 9.5 94 33 9   97.60     LegendNANA
14:00 10.3 9.5 95 32 15   97.73     LegendNANA
15:00 9.4 8.7 95 31 24   97.78     LegendNANA
16:00 9.1 8.4 96 30 22   97.87     LegendNANA
17:00 8.5 7.8 96 32 24   97.93     LegendNANA
18:00 7.6 6.9 95 34 22   98.06     LegendNANA
19:00 7.1 6.1 94 35 22   98.19     LegendNANA
20:00 6.4 5.3 93 36 26   98.29     LegendNANA
21:00 5.7 4.6 93 35 23   98.41     LegendNANA
22:00 5.1 4.2 94 34 23   98.51     LegendNANA
23:00 4.9 4.0 95 34 24   98.60     LegendNANA

Notes on Data Quality.

Legend

  • E = Estimated
  • M = Missing
  • NA = Not Available
  • ‡ = Partner data that is not subject to review by the National Climate Archives
Date modified: